STARLINK-35257, 66331

Orbit data source: Space-Track

STARLINK-35257, 66331 is a payload satellite owned by SpaceX/Seattle (US) in LEO that was launched on Thu, 06 Nov 2025 UTC via an FALCON 9 launch vehicle from the Air Force Eastern Test Range (AFETR). Payload-class satellites include a variety of spacecraft equipped with specific instruments for various scientific and technological missions. These include communications satellites like Starlink; space stations such as the ISS; scientific satellites like the Hubble; Earth observation satellites from companies like Planet Labs, Umbra, and HawkEye 360; GPS; miniature CubeSats for education and research; and military/defense satellites.

Loading next visibility...
Identifier
66331, 2025-253N
Orbit
LEO
Country
Flag of USUS
Related business
Manufacturer
SpaceX/Seattle
Mission
Operational Commercial Communications
Bus & Motor
STARLINK V2MO, Unknown motor
Mass
575 kg wet, ~530 kg dry
Launch date (UTC)
2025-11-06 (7 months ago)
Launch vehicle
FALCON 9
Launch site
Air Force Eastern Test Range (AFETR)
Object type
Payload
Rocket body
Debris
Shape & HBR
Box + 2 Pan, 17.7 m
Radar Cross Section
36.964 m², Large (>1 m²)

Expand to show TLE details & history
Last TLE update: 8 hours ago

TLE from 8 hours ago
0 STARLINK-35257
1 66331U 25253N   26170.86154068  .00013288  00000-0  49133-3 0  9995
2 66331  43.0014 355.2079 0001527 271.5246  88.5431 15.27592489 35870
Epoch: 2026-06-19T20:40Z
TLE epoch observation values (Epoch: 2026-06-19T20:40:37.114Z)
Latitude
-0.00001°
Longitude
136.96881°
Altitude
482.761 km
Speed
7.626 km/s
True Right ascension
23h 40m 49s
True Declination
0° 00' 00"
Sunlit
Object was in daylight at epoch
Visualization orbit readout
Latitude
Unknown
Longitude
Unknown
Altitude
Unknown
Speed
Unknown
Apparent Right ascension
Unknown
Apparent Declination
Unknown
Sunlit
N/A
Visualization observer readout
Local Sidereal Time
16:01:56
Azimuth
Unknown
Elevation
Unknown
Doppler factor
Unknown
Orbital elements
Apogee altitude
486.005 km
Perigee altitude
483.909 km
Semi-major axis
6,863.094 km
Eccentricity
0.00015
Inclination
43.0014°
RAAN
355.2079°
Arg. of periapsis
271.5246°
True anomaly
88.56059°
Mean anomaly
88.5431°
Eccentric anomaly
88.55185°
Mean motion
3.81736 °/min
Orbital period
94.31 mins
BSTAR
0.00049133
Loading maneuver chart data...
Computing Atmospheric mass density...
Loading historical data...
Loading historical data...
Loading historical data...
Loading historical data...
Loading historical data...
Loading historical data...
Loading historical data...

Documentation

Showing up to 5 results
|